Regional Weather Roundup
Issued by NWS

Home | Current Version | Previous Version | Text Only | Print | Product List | Glossary On
Versions: 1 2 3 4 5 6 7 8 9 10 11 12 13 14 15 16 17 18 19 20 21 22 23 24 25 26 27 28 29 30 31 32 33 34 35 36 37 38 39 40 41 42 43 44 45 46 47 48 49 50
000
ASHW40 PHFO 222143
RWRHI

WEATHER ROUNDUP FOR HAWAII
NATIONAL WEATHER SERVICE HONOLULU HI
1100 AM HST TUE JUL 22 2014

THIS IS AN AUTOMATED REPORT THAT HAS NOT BEEN QUALITY CONTROLLED.

NOTE..."FAIR" INDICATES FEW OR NO CLOUDS BELOW 12,000 FEET WITH NO
SIGNIFICANT WEATHER AND/OR OBSTRUCTIONS TO VISIBILITY.

* - THESE SITES REPORT LIMITED FIELDS

HIZ001>004-222200-
KAUAI-NIIHAU-

CITY           SKY/WX    TMP DP  RH WIND       PRES   REMARKS
LIHUE APT      SUNNY     83  77  82 NE12      30.04S HX  92
PORT ALLEN*      N/A     84 N/A N/A S7          N/A
POIPU*           N/A     86 N/A N/A NE8G14      N/A
PRINCEVILLE*   NOT AVBL
KOKOLE POINT*    N/A     84  72  65 MISG        N/A
MOLOAA DAIRY*  NOT AVBL
WAIMEA HTS*      N/A     90  70  51 SW6G12      N/A  HX  95
PUU OPAE*        N/A     81  68  65 S1G9        N/A
PUU LUA*       NOT AVBL
MAKAHA RIDGE*    N/A     91  68  46 CALM        N/A  HX  95
$$

HIZ005>011-222200-
OAHU-

CITY           SKY/WX    TMP DP  RH WIND       PRES   REMARKS
HONOLULU       CLOUDY    84  72  67 E10       30.02R
KALAELOA       CLOUDY    84  75  74 SE8       30.03S HX  92
KANEOHE MCB    CLOUDY    81  72  74 E12       30.03F
WHEELER FIELD  PTSUNNY   81  75  83 E13       30.04S
BELLOWS*         N/A    N/A N/A N/A E16         N/A
KAHUKU*          N/A    N/A N/A N/A E8G14       N/A
WHEELER*       NOT AVBL
WAIANAE HARBOR NOT AVBL
DILLINGHAM*      N/A     95  79  59 N1G7        N/A  HX 112
KAHUKU TRN*      N/A     77  75  94 E9G18       N/A
KAWAILOA*      NOT AVBL
KII*             N/A     79  77  94 E13G20      N/A
MAKUA RANGE*     N/A     88  75  66 SW7         N/A  HX  97
OAHU FOREST NW   N/A     70  70 100 N10G24      N/A
SCHOFIELD BRK*   N/A     84  72  65 MISG        N/A
SCHOFIELD S*   NOT AVBL
WAIANAE VLY*     N/A     82  73  74 S6G14       N/A
KUAOKALA*        N/A     81  73  78 CALM        N/A
HONOULIUULI*   NOT AVBL
MOKUOLOE IS*     N/A    N/A N/A N/A MISG        N/A
PALEHUA*         N/A     88  75  66 CALM        N/A  HX  97
WAIAWA PHB*    NOT AVBL
$$

HIZ012>013-222200-
MOLOKAI-

CITY           SKY/WX    TMP DP  RH WIND       PRES   REMARKS
MOLOKAI AIRPT  CLOUDY    85  77  77 NE12G17   30.03S HX  95
KALAUPAPA      NOT AVBL
MAKAPULAPAI*     N/A     82  73  74 E16G23      N/A
MOLOKAI 1*       N/A     79  72  78 E2          N/A
PUU ALII*        N/A     67  65  93 SE2G9       N/A
$$

HIZ016-222200-
KAHOOLAWE-

CITY           SKY/WX    TMP DP  RH WIND       PRES   REMARKS
KAHOOLAWE*       N/A     79 N/A N/A E14G22      N/A
HAKIOAWA*        N/A     81  71  71 MISG      30.14R
HONOKANAIA*      N/A     87  71  58 NE17G26   30.01F HX  93
KANELOA*         N/A     81  68  65 E23G35      N/A
KEALIALALO*      N/A    N/A N/A N/A E13G26    30.32S
LUA MAKIKA*    NOT AVBL
$$

HIZ014>015-222200-
LANAI-

CITY           SKY/WX    TMP DP  RH WIND       PRES   REMARKS
LANAI CITY     PTSUNNY   84  72  65 NW9       30.08S
LANAI 1*         N/A     81  77  89 NE15G24     N/A
$$

HIZ017>028-222200-
MAUI-

CITY           SKY/WX    TMP DP  RH WIND       PRES   REMARKS
KAHULUI        MOSUNNY   88  71  57 NE18G25   30.00S HX  94
KAPALUA-W MAUI MOSUNNY   84  72  65 NE17G25   30.03S
HANA AIRPORT   CLOUDY    79  73  83 SE14      30.06S
HANA*            N/A     81 N/A N/A E9G16       N/A
HALEAKALA SUMM   N/A     57  50  77 E12G24      N/A
MAALAEA BAY*   NOT AVBL
HALEAKALA*     NOT AVBL
KAUPO GAP*       N/A     77  68  73 S6G20       N/A
KULA 1*          N/A     63  59  88 NW3         N/A
$$

HIZ023>026-222200-
BIG ISLAND OF HAWAII COAST AND LOWER SLOPES-

CITY           SKY/WX    TMP DP  RH WIND       PRES   REMARKS
KAILUA KONA    MOSUNNY   85  73  67 S13       29.97R HX  91
HILO           CLOUDY    81  75  82 NE12      30.04S
HONOKAA*       NOT AVBL
KAWAIHAE MWT*    N/A     84 N/A N/A W6          N/A
KAWAIHAE*        N/A     82 N/A N/A SW3         N/A
SOUTH POINT*     N/A     79 N/A N/A E20G29      N/A
UPOLU AIRPORT*   N/A    N/A N/A N/A NE21G29     N/A
KAMUELA*       PTCLDY    81  68  65 NE21      30.11S
HAKALAU*         N/A     66  57  71 SE5G12      N/A
KALOKO-HONOKO*   N/A     86  73  66 S9        29.97S HX  93
PALI 2*          N/A     81  66  61 NE15G22     N/A
KEALAKOMO*       N/A     81  75  83 E17G23      N/A
KAUPULEHU*       N/A     86  68  54 W15         N/A
KAPAPALA*        N/A     79  70  74 SE5G12      N/A
LOWER KAHUKU*  NOT AVBL
PUHE CS*       NOT AVBL
PUHO CS*         N/A     83  71  66 S5G10       N/A
PTA KEAMUKU*     N/A     79  68  69 NE18G25     N/A
WAIKOLOA*        N/A     84  66  54 W12G25      N/A
$$

HIZ027>028-222200-
BIG ISLAND OF HAWAII INTERIOR AND SUMMMITS-

CITY           SKY/WX    TMP DP  RH WIND       PRES   REMARKS
BRADSHAW FIELD MOSUNNY   74  45  35 S9        30.38S
MK VISITOR CEN NOT AVBL
MAUNA KEA*       N/A     45  37  76 SE8         N/A
MAUNA LOA*       N/A     48  41  76 MISG        N/A
MAUNA LOA 1*     N/A     50  43  76 MISG        N/A
PTA KIPUKA*      N/A     75  59  57 NW7G13      N/A
PTA RANGE 17*    N/A     73  57  56 NW8         N/A
PTA WEST*        N/A     75  63  64 NW7         N/A
NENE CABIN*    NOT AVBL
AHUMOA*          N/A     70  60  70 VRB5G12     N/A
PTA PORTABLE*  NOT AVBL
PUU MALI*      NOT AVBL
$$

HIC003-222200-
NORTHWEST ISLANDS-

CITY           SKY/WX    TMP DP  RH WIND       PRES   REMARKS
MIDWAY ISLAND  MOSUNNY   84  72  65 E7        30.09S
MIDWAY NOS*    NOT AVBL
FRENCH FRIGATE NOT AVBL
$$

PHZ110>124-180-222200-
BUOY REPORTS

STATION/POSITION TIME  TEMP    WIND        PRES    WAVE   SWELL
                       AIR SEA DIR/SP/G            HT/PER HT/DIR
                 (UTC) (F)     (DEG/KT/KT) (MB)    (FT/S) (FT/D)
BUOY 51001       NOT AVBL
BUOY 51101       2100   79 80  120/  8/ 12 1017.0R   7/ 9   7/ 90
BUOY 51100       2100   77 78  100/ 14     1018.6F
BUOY 51003       2100   81 81   60/ 12/ 16 1015.6F   5/ 8   5
BUOY 51004       1951   78 80   60/ 17/ 21 1015.1    7/ 8   3/110
BARBERS PT BUOY  NOT AVBL
WAIMEA BAY BUOY  2100      81                N/A     4/ 8
KAILUA BAY BUOY  2100      80                N/A     6/ 8   2/ 80
LANAI BUOY       2100      80                N/A     3/13   2/190
BARBERS PT 2     2100      81                N/A     3/ 8   2/180
PAUWELA MAUI     2100      79                N/A     6/ 8
HILO             NOT AVBL
KANEOHE BAY BUOY 2100      79                N/A     5/ 8
HANALEI KAUAI    NOT AVBL
KAHULUI HARBOR   2100   81 80   50/ 17/ 21 1015.8R
HONOLULU HARBOR  2100   83      60/  5/  8 1016.7F
KILO NALU        NOT AVBL
HILO HARBOR      2100   81      70/  6/ 12 1016.6F
MOKUOLOE         2100   83 81  100/ 15/ 19 1017.1F
NAWILIWILI       2100      80                N/A
WHOTS BUOY       NOT AVBL
BUOY 51028       NOT AVBL
$$

......................KEY........................................
  SKY/WX - SKY CONDITIONS/PRESENT WEATHER
  TMP    - TEMPERATURE IN FAHRENHEIT
  DWPT   - DEWPOINT IN FAHRENHEIT
  RH     - RELATIVE HUMIDITY IN PERCENT
  WIND   - DIRECTION AND SPEED /MPH FOR ISLANDS...KTS FOR BUOYS/
  PRES   - MEAN SEA LEVEL PRESSURE IN INCHES OF HG
  VSB    - VISIBILITY IN MILES
  HX     - HEAT INDEX
  WCI    - WIND CHILL INDEX
  VRB    - VARIABLE WIND DIRECTION
  N/A    - NOT AVAILABLE


USA.gov is the U.S. government's official web portal to all federal, state and local government web resources and services.